Vorticity
4 4 4 6 11 0 7 11 15 9 3 6 4 5 7 5 6 5 7 7 3 9 6 15 20 11 7 5 4 4 5 6 9 7 1 4 -1 0 1 3 4 7 10 10
9 5 8 8 10 7 1 4 6 9 5 2 4 5 6 4 5 5 7 6 8 7 13 13 15 8 7 5 4 5 6 6 6 4 3 2 0 1 -1 -2 -1 6 12 14
6 22 6 9 9 8 7 6 6 -4 9 8 2 18 10 7 8 10 11 10 7 11 11 15 11 8 5 5 4 5 5 5 5 2 1 2 1 1 0 0 1 8 15 15
9 1 21 7 8 7 6 11 10 10 6 4 16 -1 4 7 8 7 8 10 11 11 12 15 9 5 4 4 4 5 5 4 3 2 3 3 2 1 1 -3 1 11 18 12
2 21 4 16 8 9 7 11 8 8 9 3 7 5 31 19 12 14 14 14 11 10 12 9 6 5 4 5 5 5 5 4 4 4 3 2 2 1 1 -4 8 21 13 9
5 14 8 3 10 9 8 10 7 8 9 20 21 -7 25 14 24 14 11 8 9 9 11 9 6 5 5 5 5 6 5 4 4 4 4 4 2 2 -0 11 18 14 8 5
6 6 7 16 8 9 5 13 11 11 13 3 16 16 -21 3 -0 10 9 10 6 12 11 8 6 6 6 6 7 6 5 4 4 4 4 2 1 -0 10 16 7 5 4 6
3 26 -0 20 2 -8 8 -5 -12 9 9 9 11 15 8 21 12 9 7 6 7 9 9 8 9 8 7 7 6 6 6 5 5 4 3 1 -1 11 13 10 6 8 11 7
16 -6 40 10 11 -1 35 7 5 -5 11 8 6 23 -3 -3 0 8 9 11 9 7 4 2 5 9 9 8 7 7 6 4 6 5 -2 3 12 13 6 5 7 8 7 6
17 10 16 0 17 7 -15 28 11 11 4 7 17 14 -20 2 27 22 13 10 12 6 4 4 9 10 9 8 7 4 5 3 0 1 10 16 7 3 5 8 8 7 8 7
-8 -15 30 7 14 13 3 0 -7 0 -3 7 4 21 11 15 21 10 13 9 4 4 5 6 4 7 5 0 4 6 2 -3 2 11 9 3 6 6 3 4 4 4 5 6
4 7 19 9 7 16 7 5 6 -17 23 -0 1 12 -18 -6 6 10 10 8 4 2 6 4 -1 1 3 5 1 -0 3 4 18 7 7 3 4 4 5 7 8 11 14 15
25 16 5 25 22 11 8 7 9 10 -5 9 -17 -1 13 11 12 6 3 5 7 7 2 1 3 7 2 2 9 8 12 11 6 0 1 1 5 7 10 11 12 12 13 14
10 10 -19 -18 -5 29 32 21 15 6 5 -8 -18 -16 -27 -18 -8 2 4 8 6 5 3 11 3 2 9 10 2 11 7 0 1 0 4 9 11 12 11 12 11 10 12 13
7 -1 10 -4 -3 1 -2 1 13 10 12 -14 1 9 11 1 10 10 12 10 3 11 6 1 7 9 3 10 5 0 2 2 5 10 10 11 11 10 10 9 10 12 13 14
4 -1 10 7 8 7 5 11 -1 3 7 11 7 1 1 3 8 15 14 12 14 4 2 8 7 10 3 2 4 2 2 8 12 9 9 10 10 10 12 12 15 18 22 21
10 5 -1 23 10 13 47 13 11 4 5 9 5 9 17 14 14 13 8 5 4 13 8 10 5 2 3 3 1 -1 5 10 9 9 10 13 16 16 14 15 13 13 11 12
15 10 7 6 25 16 24 16 17 21 20 20 16 18 18 17 17 17 16 11 10 8 4 1 3 4 2 -1 -2 4 11 9 11 12 17 16 14 10 11 10 8 7 6 8
11 11 4 -12 19 -20 -9 -6 12 1 12 15 16 19 12 11 12 7 5 7 6 5 6 5 1 1 2 9 15 12 11 13 13 17 13 10 9 9 8 8 8 9 9 10
8 11 1 4 7 -7 23 44 42 24 3 10 11 8 19 12 8 12 9 7 3 3 -1 1 4 9 15 11 11 12 14 14 16 10 8 9 9 10 10 11 13 14 14 12
12 10 -0 8 -4 17 4 7 6 15 -14 24 20 15 11 7 3 1 4 2 0 -1 8 13 11 12 12 13 14 16 14 11 8 7 8 9 13 13 14 13 15 13 14 17
13 -1 27 26 11 25 5 29 10 15 6 10 8 8 11 9 7 5 1 0 8 12 11 9 8 8 9 13 13 10 8 7 9 10 10 10 13 12 10 9 12 14 15 16
17 -16 0 -7 18 -4 20 17 24 19 3 9 12 11 8 5 2 1 9 11 11 10 7 10 10 10 11 11 8 8 10 10 10 10 8 11 12 12 10 13 16 16 20 18
19 21 4 17 16 -2 21 -4 -3 11 6 12 6 4 4 4 9 10 11 10 6 7 11 11 10 9 10 11 10 10 10 9 10 10 10 12 13 12 12 17 16 18 17 16
2 12 1 21 3 27 9 11 4 13 12 4 3 8 8 11 10 9 6 5 8 11 13 9 8 8 10 10 10 11 12 10 11 10 12 15 12 13 16 16 17 16 15 14
18 17 25 25 18 16 13 9 11 8 6 6 7 8 10 8 6 5 8 9 11 12 8 7 8 10 11 11 11 13 10 11 10 12 14 12 14 16 16 17 15 15 17 17
Height
3115 3119 3118 3123 3128 3128 3128 3129 3131 3132 3133 3134 3135 3136 3135 3135 3136 3136 3137 3138 3139 3140 3139 3138 3139 3140 3141 3143 3144 3143 3143 3143 3143 3142 3141 3140 3139 3137 3136 3134 3131 3128 3126 3123
3113 3114 3118 3122 3123 3124 3125 3127 3129 3129 3130 3132 3131 3132 3131 3130 3131 3132 3132 3134 3135 3135 3134 3134 3136 3137 3139 3140 3141 3141 3141 3140 3139 3139 3138 3137 3135 3134 3132 3130 3127 3124 3121 3118
3111 3114 3116 3117 3119 3121 3123 3125 3126 3128 3128 3128 3127 3125 3125 3125 3125 3126 3127 3129 3129 3130 3131 3131 3133 3135 3136 3137 3138 3138 3137 3137 3136 3135 3134 3133 3131 3130 3127 3124 3121 3118 3115 3112
3109 3110 3112 3113 3116 3119 3120 3121 3123 3125 3126 3126 3126 3122 3119 3121 3120 3120 3122 3123 3124 3126 3127 3129 3130 3132 3133 3134 3134 3134 3134 3134 3133 3132 3130 3128 3126 3124 3122 3120 3116 3113 3109 3106
3104 3105 3108 3111 3113 3114 3117 3119 3121 3122 3123 3123 3123 3123 3113 3115 3115 3116 3117 3119 3121 3123 3124 3125 3127 3129 3130 3130 3131 3131 3131 3130 3129 3128 3126 3124 3122 3120 3117 3114 3111 3107 3103 3101
3101 3102 3105 3106 3108 3111 3114 3117 3119 3120 3121 3120 3117 3118 3110 3110 3112 3113 3114 3116 3118 3119 3120 3121 3123 3125 3126 3127 3127 3127 3127 3126 3124 3123 3121 3119 3117 3114 3111 3108 3104 3100 3098 3096
3097 3099 3101 3103 3106 3108 3111 3114 3118 3122 3122 3116 3113 3113 3106 3107 3108 3109 3111 3113 3114 3115 3117 3118 3120 3121 3122 3123 3123 3123 3121 3120 3118 3117 3115 3113 3110 3107 3104 3100 3097 3094 3092 3090
3092 3098 3097 3098 3101 3104 3107 3110 3110 3117 3117 3110 3110 3105 3101 3103 3104 3105 3108 3110 3111 3112 3113 3115 3116 3118 3118 3119 3118 3118 3116 3114 3113 3112 3109 3105 3103 3099 3096 3093 3090 3087 3084 3081
3086 3089 3090 3093 3097 3102 3103 3105 3107 3107 3109 3109 3103 3100 3099 3099 3101 3102 3104 3106 3108 3109 3111 3112 3112 3113 3114 3114 3113 3112 3111 3109 3108 3105 3102 3098 3095 3091 3087 3084 3081 3078 3075 3071
3082 3085 3087 3090 3094 3096 3098 3101 3103 3104 3109 3107 3099 3097 3093 3095 3097 3099 3100 3102 3104 3106 3106 3107 3108 3110 3110 3110 3108 3107 3105 3103 3100 3097 3094 3090 3087 3083 3079 3076 3073 3069 3065 3061
3078 3081 3086 3088 3088 3090 3093 3094 3096 3099 3099 3099 3104 3092 3091 3092 3094 3095 3097 3099 3100 3101 3101 3102 3104 3105 3105 3104 3103 3101 3098 3095 3091 3087 3084 3081 3077 3074 3070 3066 3062 3058 3054 3051
3074 3078 3081 3083 3084 3086 3087 3088 3092 3093 3094 3094 3094 3088 3089 3090 3091 3092 3094 3095 3096 3097 3098 3099 3100 3100 3099 3098 3096 3093 3090 3086 3082 3078 3074 3070 3066 3062 3058 3053 3048 3043 3038 3035
3068 3071 3075 3078 3082 3080 3080 3083 3085 3088 3088 3087 3091 3085 3086 3087 3088 3089 3090 3091 3092 3093 3093 3093 3093 3093 3092 3090 3088 3084 3080 3076 3073 3069 3065 3061 3057 3052 3046 3040 3034 3030 3024 3018
3062 3063 3064 3067 3068 3070 3072 3075 3079 3082 3083 3081 3079 3080 3083 3085 3086 3085 3086 3086 3086 3086 3087 3086 3086 3085 3083 3080 3078 3076 3073 3069 3066 3061 3056 3049 3044 3038 3032 3026 3020 3014 3009 3004
3057 3058 3061 3063 3064 3066 3067 3069 3070 3072 3074 3073 3073 3074 3079 3079 3078 3079 3080 3080 3080 3080 3080 3079 3078 3076 3075 3072 3070 3068 3064 3059 3053 3048 3042 3037 3031 3024 3017 3011 3006 3000 2994 2990
3050 3052 3055 3058 3059 3061 3061 3062 3065 3066 3067 3066 3067 3067 3071 3072 3071 3072 3073 3073 3073 3072 3072 3071 3070 3068 3066 3063 3059 3055 3051 3045 3039 3034 3028 3022 3015 3009 3004 2998 2992 2987 2983 2977
3045 3048 3051 3051 3054 3054 3051 3054 3057 3058 3059 3060 3058 3060 3063 3064 3064 3065 3066 3067 3067 3065 3064 3063 3062 3059 3055 3051 3046 3043 3037 3031 3026 3020 3015 3009 3003 2996 2991 2985 2979 2975 2970 2965
3040 3044 3047 3047 3050 3052 3042 3044 3048 3050 3051 3053 3053 3054 3056 3057 3059 3059 3059 3059 3059 3058 3057 3055 3052 3049 3047 3043 3038 3032 3026 3021 3015 3010 3004 2998 2991 2985 2979 2973 2968 2963 2957 2952
3034 3038 3041 3044 3043 3039 3036 3038 3042 3043 3045 3046 3047 3048 3050 3051 3053 3054 3054 3054 3053 3051 3050 3048 3045 3040 3035 3030 3026 3020 3015 3009 3004 2999 2993 2987 2981 2974 2968 2961 2955 2949 2943 2938
3028 3032 3038 3037 3038 3035 3030 3032 3035 3039 3038 3041 3042 3043 3044 3046 3048 3049 3049 3049 3048 3045 3042 3039 3036 3031 3026 3022 3017 3011 3005 2999 2994 2988 2982 2976 2969 2962 2955 2949 2943 2937 2930 2923
3020 3023 3027 3029 3030 3026 3026 3029 3032 3035 3036 3035 3037 3038 3040 3041 3042 3043 3042 3041 3039 3038 3036 3032 3027 3022 3017 3012 3006 2999 2993 2988 2982 2976 2971 2965 2959 2951 2944 2937 2931 2923 2915 2908
3012 3016 3019 3025 3026 3022 3021 3023 3027 3027 3026 3029 3031 3033 3034 3035 3036 3036 3035 3035 3032 3030 3026 3023 3017 3011 3007 3002 2995 2989 2983 2977 2971 2965 2959 2953 2946 2939 2931 2924 2917 2910 2902 2895
3008 3009 3011 3015 3014 3013 3014 3016 3019 3021 3023 3025 3027 3028 3029 3029 3029 3028 3028 3026 3023 3020 3016 3012 3006 3000 2996 2991 2984 2977 2973 2966 2960 2953 2946 2939 2932 2926 2919 2911 2904 2896 2889 2882
2998 3000 3004 3007 3006 3007 3009 3010 3013 3016 3018 3020 3021 3023 3023 3023 3022 3020 3018 3016 3014 3010 3005 3001 2996 2990 2986 2981 2975 2968 2962 2955 2948 2941 2935 2927 2921 2914 2907 2900 2893 2885 2879 2873
2990 2993 2994 2997 2998 3001 3004 3006 3009 3012 3014 3016 3017 3017 3016 3015 3013 3011 3010 3007 3003 3000 2996 2991 2985 2980 2975 2969 2964 2958 2951 2944 2937 2930 2924 2917 2910 2904 2896 2890 2883 2876 2870 2864
2983 2986 2989 2991 2994 2997 3001 3004 3007 3009 3009 3010 3011 3011 3009 3008 3007 3005 3002 2998 2993 2990 2986 2981 2976 2969 2965 2959 2953 2946 2940 2933 2927 2920 2914 2907 2900 2893 2886 2878 2871 2868 2862 2856